GALAXY 18 (G-18)

Last updated on Tue Sep 22 2026 00:03:11 GMT+0000 (Coordinated Universal Time)

1 32951U 08024A 26264.50303877 .00000021 00000+0 00000+0 0 9998 2 32951 0.0168 206.3391 0003008 327.6688 244.4786 1.00271291 46819
UTC large
Height (km)
Speed (km/s)
/
Latitude / Longitude
Inclination (degrees)
Orbital Period (minutes)
Azimuth
Elevation
Range (km)
Doppler Factor

Next 0 passes for location: London (51.5072 / 0.1276)

No passes found over London.
GALAXY 18 (G-18)